Location: Napier
(39.4830°S, 176.9170°E)
Time: 13:53:47
(UTC+12:00)

Cosmos 1818 - Pass Details

Date: 24 January 2019
Orbit: 772 x 802 km, 65.0° (Epoch: 22 April)

Event Time Altitude Azimuth Distance (km) Brightness Sun altitude
Exits shadow 23:47:48 20° 299° (WNW) 1,774 5.3 -27.1°
Maximum altitude 23:51:19 46° 233° (SW) 1,051 4.5 -27.4°
Drops below altitude 10° 23:56:32 10° 160° (SSE) 2,357 6.6 -27.8°
Sets 23:59:03 0° 153° (SSE) 3,287 7.3 -28.0°
